Powrót do katalogu

DMSP 5D-2 F13 DEB

AktywnySSO
NORAD 40405·DEBRIS·🇺🇸 United States

Wystrzelony Mar 24, 1995 z Vandenberg Space Force Base

Loading…

Następne Przeloty (najbliższe 24 godziny)

TLE

ŚwieżeSource: Space-Track

Epoka: Sep 14, 2026, 07:00 UTC

1 40405U 95015S   26257.29211683  .00001050  00000-0  47613-3 0  9997
2 40405  98.8659 281.0319 0122104  47.4095 313.7305 14.20145284595612

Śledź DMSP 5D-2 F13 DEB w czasie rzeczywistym z AllMySat

Download on the App Store